Погода в Хабаровске

Хотите узнать прогноз погоды в Хабаровске? Тогда Вам сюда: Погода в Хабаровске

Поиск расширенной информации на нашем сайте:

Полезная информация:

Новости сайта



02.01.2020
Опубликован Долгосрочный прогноз погоды по городам России и ближнего зарубежья на январь 2020 года.
Карты: Прогноз на январь и февраль 2020 года, Сравнение прогнозируемой аномалии приземной температуры воздуха на январь 2020 года по разным моделям.




Погода в Хабаровске - сегодня

Время (UTC), дата Ветер
(°,м/с) 
Видим.   Явления Облачность Т
(°С)
Тd
(°С)
f(%) Тe
(°С)
Pmin
(гПа)
dP
(гПа)
Po
(мм)
O2
(г/м3)
Тmin Tmax R s Состояние
почвы
09 26.02.20 270 (З) 10 км    1/0 верхняя 
[Ci fib]
-4.2 -11.6 56 -5  1024.9  0.6  762  313    -2.1       
12 26.02.20 160 (Ю) 8000 м  дым  ясно 
-8.7 -12.3 75 -10  1024.9  0.1  762  318           
15 26.02.20 180 (Ю) 5000 м  дым  ясно 
-10.6 -13.3 81 -12  1024.7  -0.3  762  321           
18 26.02.20 250 (З) 10 км    ясно 
-12.2 -14.8 81 -14  1024.5  -0.3  762  323           
21 26.02.20 090 (В) 10 км    ясно 
-15.8 -18 83 -18  1025  0.4  762  327  -15.9         
00 27.02.20 300 (СЗ) 10 км    ясно 
-9.4 -13.5 72 -11  1025.7  0.7  762  319  -16.4         
03 27.02.20 170 (Ю) 10 км    ясно 
-2.2 -12.8 44 -2  1024.3  -1.2  761  310           
06 27.02.20 250 (З) 10 км    ясно 
-2 -13.4 41 -5  1022.5  -1.5  760  310           
09 27.02.20 220 (ЮЗ) 10 км    5/0 средняя, верхняя 
[Ac trans|Ci fib]
-4.4 -12.1 55 -7  1022.6  -0.3  760  312    -0.9       
12 27.02.20 150 (ЮВ) 10 км    5/0 средняя, верхняя 
[Ac trans|Ci fib]
-7.7 -13 66 -9  1022.7  0.2  760  316           
15 27.02.20 070 (В) 10 км    ясно 
-10.2 -13.5 77 -13  1023.4  0.4  761  320           
18 27.02.20 080 (В) 10 км    5/5 2000 м средняя 
[Ac trans]
-10.5 -13.6 78 -12  1024.1  0.9  761  320           
21 27.02.20 060 (СВ) 10 км    5/0 средняя 
[Ac trans]
-8.1 -12.1 73 -11  1025  0.9  762  318  -11.9         
00 28.02.20 040 (СВ) 10 км    5/0 средняя 
[Ac trans]
-6.8 -14.8 53 -9  1026.2  763  316           
03 28.02.20 040 (СВ) 7{11}  10 км    ясно 
-4.3 -18.8 31 -9  1025.9  -0.2  763  314           
06 28.02.20 040 (СВ) 6{11}  10 км    ясно 
-3.8 -19 30 -8  1024.7  -1.1  762  313           
09 28.02.20 050 (СВ) 10 км    3/0 средняя 
[Ac trans]
-7.4 -18.9 39 -10  1024.4  -0.5  761  317    -3.3       
12 28.02.20 020 (С) 10 км    3/0 средняя 
[Ac trans]
-10.3 -18.2 52 -14  1024.4  -0.2  761  320           
15 28.02.20 010 (С) 10 км    ясно 
-12.6 -18.8 60 -17  1023.2  -1.2  760  323           
18 28.02.20 030 (СВ) 10 км    3/0 средняя 
[Ac trans]
-13.7 -18.8 65 -16  1022.4  -0.9  760  324           
21 28.02.20 020 (С) 10 км    ясно 
-15.2 -19.8 68 -20  1022.5  0.1  760  326  -15.2         
00 29.02.20 040 (СВ) 10 км    5/0 верхняя 
[Ci fib]
-11.8 -17.8 61 -15  1023  0.6  760  322           
03 29.02.20 050 (СВ) 10 км    4/0 верхняя 
[Ci fib]
-3.9 -15.3 41 -6  1021.7  -0.9  760  312           
06 29.02.20 030 (СВ) 10 км    3/0 верхняя 
[Ci fib]
-1.3 -14.3 36 -5  1020.7  -1.1  759  308           
09 29.02.20 010 (С) 10 км    4/0 верхняя 
[Ci fib]
-4.6 -13.4 50 -8  1021.3  0.5  759  312    -0.9       
Время (UTC), дата Ветер
(°,м/с) 
Видим.   Явления Облачность Т
(°С)
Тd
(°С)
f(%) Тe
(°С)
Pmin
(гПа)
dP
(гПа)
Po
(мм)
O2
(г/м3)
Тmin Tmax R s Состояние
почвы

Для получения пояснительной информации подведите курсор к названию столбца.

ПОГОДА в Хабаровске - архив

Всё, что Вы хотите узнать о погоде в Хабаровске - удобно и подробно!

Выберите нужную дату (начиная с 1 января 2019* года) и нажмите кнопку "Найти".
Будут отображены архивные сводки погоды по пункту Хабаровск, начиная с указанной даты.


Отображать данные в формате CSV (для использования в таблицах Excel)


Внимание! Наш архив погоды предназначен исключительно для личного некоммерческого использования в познавательных целях. Если Вам необходимы официальные справки о состоянии погоды (для производственных, юридических, коммерческих и т.п. целей), обращайтесь в органы Росгидромета.

*Примечание: данная дата относится к архиву по метеостанциям СССР (Россия, СНГ, Балтия).
Архив по метеостанциям Зарубежной Европы и Азии (кроме Китая) хранится 10 дней, по другим регионам земного шара (Китай, Африка, Америка, Австралия, Океания) - 1 день.

Хабаровск - район местоположения метеостанции


Название, широта, долгота, высота метеостанции:
Хабаровск 48.5°ш. 135.2°д. 76 м над ур. моря [Российская Федерация]

Дополнительная информация

В oтличие oт бoльшинства пoгoдных сайтoв мы публикуем пoдрoбную метеoинфoрмацию в детальнoм прoфессиoнальнoм фoрмате.

Характеристики температуры и влажнoсти вoздуха измеряются на высoте 2 м в тени вдали oт зданий и деревьев.
Скoрoсть ветра измеряется на высoте 10 м (на урoвне рoста челoвека скoрoсть ветра ниже в 1.5-2 раза). Если метеoстанция нахoдится в гoрoде или в лесу, тo скoрoсть ветра занижена на 2-4 м/с пo сравнению с oткрытым местoм. Скoрoсть ветра над акватoриями крупных рек и oзёр, а также на вершинах хoлмoв на 2-5 м/с выше, чем в oбычных услoвиях.
Атмoсфернoе давление в разных тoчках местнoсти мoжет значительнo oтличаться oт давления на метеoстанции, в зависимoсти oт услoвий рельефа (при пoдъёме на 10 м давление пoнижается примернo на 1 мм рт.ст.).